Location: Robert Brownlee Observatory
(34.2308°N, 117.2089°W)
Time: 21:00:04
(UTC-07:00)

Cosmos 1943 - Visible Passes

Search period start: 30 October 2014 00:00
Search period end: 08 November 2014 23:00
Orbit: 836 x 849 km, 71.0° (Epoch: 30 October)

Date Brightness Start Highest point End Pass type
(mag) Time Alt. Az. Time Alt. Az. Time Alt. Az.
30 Oct 5.9 04:59:34 10° NNE 05:02:35 15° NE 05:05:36 10° E visible
30 Oct 3.2 06:41:35 10° NNW 06:47:11 71° WSW 06:52:46 10° S visible
30 Oct 3.3 19:45:13 10° S 19:50:03 50° SE 19:50:03 50° SE visible
30 Oct 5.9 21:31:05 10° WSW 21:31:59 13° W 21:31:59 13° W visible
31 Oct 5.9 04:44:54 10° NNE 04:47:42 14° NE 04:50:29 10° E visible
31 Oct 3.2 06:26:43 10° NNW 06:32:20 75° WSW 06:37:56 10° SSE visible
31 Oct 3.3 19:30:25 10° S 19:35:47 49° ESE 19:37:01 42° ENE visible
31 Oct 5.5 21:16:04 10° WSW 21:18:57 19° WNW 21:18:57 19° WNW visible
01 Nov 5.9 04:30:15 10° NNE 04:32:48 13° NE 04:35:21 10° E visible
01 Nov 3.1 06:11:51 10° NNW 06:17:29 79° WSW 06:23:06 10° SSE visible
01 Nov 3.4 19:15:37 10° S 19:20:57 47° ESE 19:23:54 25° NE visible
01 Nov 5.3 21:01:03 10° WSW 21:05:12 21° WNW 21:05:49 21° NW visible
02 Nov 5.9 03:15:38 10° NNE 03:17:54 12° NE 03:20:11 10° ENE visible
02 Nov 3.1 04:57:00 10° NNW 05:02:38 84° WSW 05:08:16 10° SSE visible
02 Nov 3.5 18:00:50 10° S 18:06:07 44° ESE 18:10:39 14° NE visible
02 Nov 5.3 19:46:03 10° WSW 19:50:19 22° WNW 19:52:33 18° NNW visible
03 Nov 6.0 03:01:03 10° NNE 03:03:00 12° NE 03:04:57 10° ENE visible
03 Nov 3.1 04:42:08 10° NNW 04:47:47 88° WSW 04:53:26 10° SSE visible
03 Nov 3.6 17:46:03 10° S 17:51:16 42° ESE 17:56:31 10° NE visible
03 Nov 5.3 19:31:04 10° WSW 19:35:27 23° WNW 19:39:08 13° NNW visible
04 Nov 6.0 02:46:34 10° NE 02:48:06 11° NE 02:49:39 10° ENE visible
04 Nov 3.1 04:28:02 14° NNW 04:32:56 88° ENE 04:38:35 10° SSE visible
04 Nov 3.7 17:31:16 10° S 17:36:26 39° ESE 17:41:37 10° NE visible
04 Nov 5.2 19:16:05 10° WSW 19:20:34 24° WNW 19:25:04 10° N visible
05 Nov 6.1 02:33:03 10° NE 02:33:12 10° NE 02:34:11 10° ENE visible
05 Nov 3.1 04:14:58 28° NNW 04:18:05 84° ENE 04:23:44 10° SSE visible
05 Nov 3.7 17:16:30 10° S 17:21:36 37° ESE 17:26:43 10° NE visible
05 Nov 5.2 19:01:06 10° WSW 19:05:41 26° WNW 19:10:18 10° N visible
06 Nov 3.2 04:01:58 55° N 04:03:14 79° ENE 04:08:52 10° SSE visible
06 Nov 5.0 05:45:36 10° W 05:46:29 10° W 05:47:22 10° WSW visible
06 Nov 5.1 18:46:08 10° WSW 18:50:49 27° WNW 18:55:31 10° N visible
07 Nov 3.4 03:48:59 68° ESE 03:48:59 68° ESE 03:54:01 10° SSE visible
07 Nov 4.9 05:30:55 11° W 05:31:40 11° W 05:33:15 10° WSW visible
07 Nov 5.0 18:31:10 10° WSW 18:35:56 28° WNW 18:40:44 10° N visible
08 Nov 4.4 03:35:58 35° SE 03:35:58 35° SE 03:39:09 10° SSE visible
08 Nov 5.0 05:17:54 11° WSW 05:17:54 11° WSW 05:18:54 10° WSW visible
08 Nov 5.0 18:16:13 10° WSW 18:21:04 30° WNW 18:25:56 10° N visible
